Time,TemperatureF,DewpointF,PressureIn,WindDirection,WindDirectionDegrees,WindSpeedMPH,WindSpeedGustMPH,Humidity,HourlyPrecipIn,Conditions,Clouds,dailyrainin,SolarRadiationWatts/m^2,SoftwareType,DateUTC
2013-04-11 00:02:00,76.9,71.3,30.02,SE,134,6.0,7.0,83,0.00,,,0.00,0,Wunderground v.1.15,2013-04-11 04:02:00,
2013-04-11 00:04:00,76.9,71.3,30.02,ESE,103,6.0,7.0,83,0.00,,,0.00,0,Wunderground v.1.15,2013-04-11 04:04:00,
2013-04-11 00:06:00,76.9,71.7,30.02,SE,128,6.0,9.0,84,0.00,,,0.00,0,Wunderground v.1.15,2013-04-11 04:06:00,
2013-04-11 00:10:00,76.9,71.7,30.02,SE,141,5.0,9.0,84,0.00,,,0.00,0,Wunderground v.1.15,2013-04-11 04:10:00,
2013-04-11 00:16:00,76.8,71.6,30.02,SE,140,4.0,6.0,84,0.00,,,0.00,0,Wunderground v.1.15,2013-04-11 04:16:00,
2013-04-11 00:22:00,76.8,71.6,30.01,ESE,106,4.0,11.0,84,0.00,,,0.00,0,Wunderground v.1.15,2013-04-11 04:22:00,
2013-04-11 00:28:00,76.8,71.6,30.01,ESE,111,5.0,11.0,84,0.00,,,0.00,0,Wunderground v.1.15,2013-04-11 04:28:00,
2013-04-11 00:34:00,76.9,72.0,30.01,ESE,118,6.0,7.0,85,0.00,,,0.00,0,Wunderground v.1.15,2013-04-11 04:34:00,
2013-04-11 00:40:00,76.8,71.9,30.01,SE,144,5.0,7.0,85,0.00,,,0.00,0,Wunderground v.1.15,2013-04-11 04:40:00,
2013-04-11 00:46:00,76.8,71.6,30.01,ESE,115,6.0,8.0,84,0.00,,,0.00,0,Wunderground v.1.15,2013-04-11 04:46:00,
2013-04-11 00:52:00,76.8,71.6,30.01,ESE,111,5.0,5.0,84,0.00,,,0.00,0,Wunderground v.1.15,2013-04-11 04:52:00,
2013-04-11 00:58:00,76.7,71.1,30.01,SE,141,5.0,13.0,83,0.00,,,0.00,0,Wunderground v.1.15,2013-04-11 04:58:00,
2013-04-11 01:04:00,76.8,71.2,30.01,ESE,105,6.0,11.0,83,0.00,,,0.00,0,Wunderground v.1.15,2013-04-11 05:04:00,
2013-04-11 01:10:00,77.0,71.4,30.01,SE,128,7.0,11.0,83,0.00,,,0.00,0,Wunderground v.1.15,2013-04-11 05:10:00,
2013-04-11 01:16:00,77.1,71.2,30.01,SSW,194,7.0,13.0,82,0.00,,,0.00,0,Wunderground v.1.15,2013-04-11 05:16:00,
2013-04-11 01:22:00,77.1,71.5,30.00,SE,130,6.0,6.0,83,0.00,,,0.00,0,Wunderground v.1.15,2013-04-11 05:22:00,
2013-04-11 01:28:00,77.1,71.5,30.00,ESE,106,6.0,10.0,83,0.00,,,0.00,0,Wunderground v.1.15,2013-04-11 05:28:00,
2013-04-11 01:34:00,77.1,71.5,30.00,SE,131,5.0,7.0,83,0.00,,,0.00,0,Wunderground v.1.15,2013-04-11 05:34:00,
2013-04-11 01:40:00,77.0,71.4,29.99,SE,142,6.0,13.0,83,0.00,,,0.00,0,Wunderground v.1.15,2013-04-11 05:40:00,
2013-04-11 01:46:00,77.0,71.8,29.99,ESE,108,6.0,8.0,84,0.00,,,0.00,0,Wunderground v.1.15,2013-04-11 05:46:00,
2013-04-11 01:52:00,76.8,70.9,29.99,East,90,6.0,10.0,82,0.00,,,0.00,0,Wunderground v.1.15,2013-04-11 05:52:00,
2013-04-11 01:58:00,76.7,70.4,29.99,East,92,6.0,10.0,81,0.00,,,0.00,0,Wunderground v.1.15,2013-04-11 05:58:00,
2013-04-11 02:04:00,76.8,70.9,29.99,SE,130,7.0,10.0,82,0.00,,,0.00,0,Wunderground v.1.15,2013-04-11 06:04:00,
2013-04-11 02:10:00,76.8,70.9,29.98,South,173,7.0,10.0,82,0.00,,,0.00,0,Wunderground v.1.15,2013-04-11 06:10:00,
2013-04-11 02:16:00,76.7,70.8,29.98,SE,145,7.0,7.0,82,0.00,,,0.00,0,Wunderground v.1.15,2013-04-11 06:16:00,
2013-04-11 02:22:00,76.8,71.2,29.98,SSE,161,7.0,7.0,83,0.00,,,0.00,0,Wunderground v.1.15,2013-04-11 06:22:00,
2013-04-11 02:28:00,76.8,71.2,29.98,SE,125,6.0,8.0,83,0.00,,,0.00,0,Wunderground v.1.15,2013-04-11 06:28:00,
2013-04-11 02:34:00,76.8,71.2,29.97,ESE,117,7.0,12.0,83,0.00,,,0.00,0,Wunderground v.1.15,2013-04-11 06:34:00,
2013-04-11 02:40:00,76.7,71.1,29.97,SE,132,9.0,12.0,83,0.00,,,0.00,0,Wunderground v.1.15,2013-04-11 06:40:00,
2013-04-11 02:46:00,76.7,70.8,29.97,SE,137,8.0,11.0,82,0.00,,,0.00,0,Wunderground v.1.15,2013-04-11 06:46:00,
2013-04-11 02:52:00,76.8,70.9,29.97,SE,131,8.0,10.0,82,0.00,,,0.00,0,Wunderground v.1.15,2013-04-11 06:52:00,
2013-04-11 02:58:00,76.8,70.9,29.97,SSE,160,9.0,12.0,82,0.00,,,0.00,0,Wunderground v.1.15,2013-04-11 06:58:00,
2013-04-11 03:04:00,76.8,71.2,29.97,SE,138,9.0,9.0,83,0.00,,,0.00,0,Wunderground v.1.15,2013-04-11 07:04:00,
2013-04-11 03:10:00,76.7,70.8,29.96,ESE,121,8.0,13.0,82,0.00,,,0.00,0,Wunderground v.1.15,2013-04-11 07:10:00,
2013-04-11 03:16:00,76.7,70.8,29.97,ESE,118,7.0,13.0,82,0.00,,,0.00,0,Wunderground v.1.15,2013-04-11 07:16:00,
2013-04-11 03:22:00,76.7,70.8,29.96,SSE,163,8.0,8.0,82,0.00,,,0.00,0,Wunderground v.1.15,2013-04-11 07:22:00,
2013-04-11 03:28:00,76.6,71.0,29.96,SE,141,7.0,8.0,83,0.00,,,0.00,0,Wunderground v.1.15,2013-04-11 07:28:00,
2013-04-11 03:34:00,76.6,71.0,29.95,East,101,6.0,7.0,83,0.00,,,0.00,0,Wunderground v.1.15,2013-04-11 07:34:00,
2013-04-11 03:40:00,76.5,70.9,29.95,SSW,195,6.0,7.0,83,0.00,,,0.00,0,Wunderground v.1.15,2013-04-11 07:40:00,
2013-04-11 03:46:00,76.4,70.9,29.95,ESE,121,6.0,7.0,83,0.00,,,0.00,0,Wunderground v.1.15,2013-04-11 07:46:00,
2013-04-11 03:52:00,76.4,70.9,29.95,ESE,119,6.0,6.0,83,0.00,,,0.00,0,Wunderground v.1.15,2013-04-11 07:52:00,
2013-04-11 03:58:00,76.5,71.3,29.95,East,83,6.0,12.0,84,0.00,,,0.00,0,Wunderground v.1.15,2013-04-11 07:58:00,
2013-04-11 04:04:00,76.4,71.6,29.95,SSE,160,7.0,7.0,85,0.00,,,0.00,0,Wunderground v.1.15,2013-04-11 08:04:00,
2013-04-11 04:10:00,75.8,71.3,29.95,SSE,148,7.0,7.0,86,0.00,,,0.00,0,Wunderground v.1.15,2013-04-11 08:10:00,
2013-04-11 04:16:00,75.3,71.2,29.95,ESE,117,7.0,10.0,87,0.00,,,0.00,0,Wunderground v.1.15,2013-04-11 08:16:00,
2013-04-11 04:22:00,75.0,71.2,29.95,SSE,159,8.0,8.0,88,0.00,,,0.01,0,Wunderground v.1.15,2013-04-11 08:22:00,
2013-04-11 04:28:00,75.0,71.2,29.95,SE,128,7.0,11.0,88,0.00,,,0.01,0,Wunderground v.1.15,2013-04-11 08:28:00,
2013-04-11 04:34:00,75.1,71.3,29.95,ESE,114,7.0,10.0,88,0.00,,,0.01,0,Wunderground v.1.15,2013-04-11 08:34:00,
2013-04-11 04:40:00,75.4,71.3,29.95,East,94,9.0,9.0,87,0.00,,,0.01,0,Wunderground v.1.15,2013-04-11 08:40:00,
2013-04-11 04:46:00,75.5,71.4,29.95,SE,129,8.0,9.0,87,0.00,,,0.01,0,Wunderground v.1.15,2013-04-11 08:46:00,
2013-04-11 04:52:00,75.3,71.2,29.95,SE,124,6.0,6.0,87,0.00,,,0.01,0,Wunderground v.1.15,2013-04-11 08:52:00,
2013-04-11 04:58:00,75.5,71.4,29.95,SE,138,6.0,8.0,87,0.00,,,0.01,0,Wunderground v.1.15,2013-04-11 08:58:00,
2013-04-11 05:04:00,75.6,71.5,29.95,SE,130,7.0,8.0,87,0.00,,,0.01,0,Wunderground v.1.15,2013-04-11 09:04:00,
2013-04-11 05:10:00,75.7,71.9,29.95,SSE,155,6.0,14.0,88,0.00,,,0.01,0,Wunderground v.1.15,2013-04-11 09:10:00,
2013-04-11 05:16:00,75.7,71.6,29.95,ESE,115,8.0,12.0,87,0.00,,,0.01,0,Wunderground v.1.15,2013-04-11 09:16:00,
2013-04-11 05:22:00,75.7,71.6,29.95,ESE,115,10.0,10.0,87,0.00,,,0.01,0,Wunderground v.1.15,2013-04-11 09:22:00,
2013-04-11 05:28:00,75.8,71.3,29.95,SE,132,10.0,13.0,86,0.00,,,0.01,0,Wunderground v.1.15,2013-04-11 09:28:00,
2013-04-11 05:34:00,75.8,71.3,29.95,South,186,10.0,13.0,86,0.00,,,0.01,0,Wunderground v.1.15,2013-04-11 09:34:00,
2013-04-11 05:40:00,75.7,70.9,29.95,East,94,9.0,13.0,85,0.00,,,0.01,0,Wunderground v.1.15,2013-04-11 09:40:00,
2013-04-11 05:48:00,75.8,71.0,29.95,SE,136,9.0,13.0,85,0.00,,,0.01,0,Wunderground v.1.15,2013-04-11 09:48:00,
2013-04-11 05:54:00,75.9,71.1,29.95,ESE,120,8.0,9.0,85,0.00,,,0.01,0,Wunderground v.1.15,2013-04-11 09:54:00,
2013-04-11 06:00:00,75.9,71.1,29.95,ESE,119,7.0,12.0,85,0.00,,,0.01,0,Wunderground v.1.15,2013-04-11 10:00:00,
2013-04-11 06:06:00,76.1,71.3,29.95,ESE,109,9.0,12.0,85,0.00,,,0.01,0,Wunderground v.1.15,2013-04-11 10:06:00,
2013-04-11 06:12:00,76.1,70.9,29.96,SE,136,9.0,12.0,84,0.00,,,0.01,0,Wunderground v.1.15,2013-04-11 10:12:00,
2013-04-11 06:18:00,76.2,71.0,29.96,ESE,116,7.0,12.0,84,0.00,,,0.01,0,Wunderground v.1.15,2013-04-11 10:18:00,
2013-04-11 06:24:00,76.2,71.0,29.96,SE,130,6.0,13.0,84,0.00,,,0.01,0,Wunderground v.1.15,2013-04-11 10:24:00,
2013-04-11 06:30:00,76.2,71.4,29.96,SE,134,7.0,7.0,85,0.00,,,0.01,0,Wunderground v.1.15,2013-04-11 10:30:00,
2013-04-11 06:36:00,76.3,71.5,29.96,East,95,6.0,10.0,85,0.00,,,0.01,0,Wunderground v.1.15,2013-04-11 10:36:00,
2013-04-11 06:42:00,76.2,71.0,29.96,SE,146,6.0,6.0,84,0.00,,,0.01,0,Wunderground v.1.15,2013-04-11 10:42:00,
2013-04-11 06:48:00,76.2,71.0,29.97,SE,126,6.0,13.0,84,0.00,,,0.01,0,Wunderground v.1.15,2013-04-11 10:48:00,
2013-04-11 06:54:00,76.4,71.2,29.97,SSE,148,8.0,12.0,84,0.00,,,0.01,0,Wunderground v.1.15,2013-04-11 10:54:00,
2013-04-11 07:02:00,76.5,70.9,29.97,SSE,162,10.0,10.0,83,0.00,,,0.01,0,Wunderground v.1.15,2013-04-11 11:02:00,
2013-04-11 07:08:00,76.6,71.0,29.97,SE,128,9.0,10.0,83,0.00,,,0.01,5,Wunderground v.1.15,2013-04-11 11:08:00,
2013-04-11 07:14:00,76.5,71.3,29.97,East,101,6.0,12.0,84,0.00,,,0.01,7,Wunderground v.1.15,2013-04-11 11:14:00,
2013-04-11 07:20:00,76.4,71.2,29.98,ESE,119,6.0,12.0,84,0.00,,,0.01,11,Wunderground v.1.15,2013-04-11 11:20:00,
2013-04-11 07:26:00,76.4,71.2,29.98,ESE,111,7.0,10.0,84,0.00,,,0.01,14,Wunderground v.1.15,2013-04-11 11:26:00,
2013-04-11 07:32:00,76.4,71.2,29.98,ESE,118,7.0,14.0,84,0.00,,,0.01,23,Wunderground v.1.15,2013-04-11 11:32:00,
2013-04-11 07:38:00,76.5,70.9,29.98,SSE,151,7.0,14.0,83,0.00,,,0.01,21,Wunderground v.1.15,2013-04-11 11:38:00,
2013-04-11 07:44:00,76.6,70.7,29.98,SE,128,7.0,9.0,82,0.00,,,0.01,25,Wunderground v.1.15,2013-04-11 11:44:00,
2013-04-11 07:50:00,76.7,70.8,29.98,ESE,111,7.0,10.0,82,0.00,,,0.01,35,Wunderground v.1.15,2013-04-11 11:50:00,
2013-04-11 07:56:00,76.7,70.8,29.98,SSE,155,7.0,11.0,82,0.00,,,0.01,42,Wunderground v.1.15,2013-04-11 11:56:00,
2013-04-11 08:02:00,76.8,70.9,29.98,SSE,160,8.0,8.0,82,0.00,,,0.01,40,Wunderground v.1.15,2013-04-11 12:02:00,
2013-04-11 08:08:00,76.8,70.9,29.98,East,95,9.0,9.0,82,0.00,,,0.01,53,Wunderground v.1.15,2013-04-11 12:08:00,
2013-04-11 08:14:00,76.9,71.0,29.99,SSE,164,8.0,11.0,82,0.00,,,0.01,49,Wunderground v.1.15,2013-04-11 12:14:00,
2013-04-11 08:20:00,76.9,71.0,30.00,SE,128,8.0,8.0,82,0.00,,,0.01,44,Wunderground v.1.15,2013-04-11 12:20:00,
2013-04-11 08:26:00,76.9,71.0,29.99,SSE,148,7.0,11.0,82,0.00,,,0.01,54,Wunderground v.1.15,2013-04-11 12:26:00,
2013-04-11 08:32:00,77.0,71.1,30.00,SE,135,8.0,8.0,82,0.00,,,0.01,77,Wunderground v.1.15,2013-04-11 12:32:00,
2013-04-11 08:38:00,77.1,71.2,30.00,ESE,119,7.0,9.0,82,0.00,,,0.01,77,Wunderground v.1.15,2013-04-11 12:38:00,
2013-04-11 08:44:00,77.1,70.8,30.00,SE,125,6.0,10.0,81,0.00,,,0.01,83,Wunderground v.1.15,2013-04-11 12:44:00,
2013-04-11 08:50:00,77.2,70.9,30.00,SE,144,7.0,7.0,81,0.00,,,0.01,105,Wunderground v.1.15,2013-04-11 12:50:00,
2013-04-11 08:56:00,77.4,71.1,30.00,ESE,111,9.0,10.0,81,0.00,,,0.01,304,Wunderground v.1.15,2013-04-11 12:56:00,
2013-04-11 09:02:00,77.7,71.4,30.00,ESE,105,9.0,18.0,81,0.00,,,0.01,125,Wunderground v.1.15,2013-04-11 13:02:00,
2013-04-11 09:08:00,77.6,71.3,30.00,SE,134,9.0,18.0,81,0.00,,,0.01,313,Wunderground v.1.15,2013-04-11 13:08:00,
2013-04-11 09:14:00,77.7,71.0,30.00,ESE,105,9.0,14.0,80,0.00,,,0.01,192,Wunderground v.1.15,2013-04-11 13:14:00,
2013-04-11 09:20:00,77.6,70.9,30.01,ESE,118,10.0,14.0,80,0.00,,,0.01,162,Wunderground v.1.15,2013-04-11 13:20:00,
2013-04-11 09:26:00,77.5,71.2,30.00,ESE,121,9.0,14.0,81,0.00,,,0.01,148,Wunderground v.1.15,2013-04-11 13:26:00,
2013-04-11 09:32:00,77.5,71.2,30.00,SE,126,8.0,11.0,81,0.00,,,0.01,186,Wunderground v.1.15,2013-04-11 13:32:00,
2013-04-11 09:38:00,77.6,71.3,30.01,SE,126,8.0,11.0,81,0.00,,,0.01,202,Wunderground v.1.15,2013-04-11 13:38:00,
2013-04-11 09:44:00,77.6,71.3,30.01,SSE,161,9.0,15.0,81,0.00,,,0.01,209,Wunderground v.1.15,2013-04-11 13:44:00,
2013-04-11 09:50:00,77.7,71.4,30.01,SE,139,10.0,15.0,81,0.00,,,0.01,174,Wunderground v.1.15,2013-04-11 13:50:00,
2013-04-11 09:56:00,77.7,71.4,30.01,SSE,163,9.0,15.0,81,0.00,,,0.01,185,Wunderground v.1.15,2013-04-11 13:56:00,
2013-04-11 10:02:00,77.7,71.4,30.01,East,92,9.0,11.0,81,0.00,,,0.01,276,Wunderground v.1.15,2013-04-11 14:02:00,
2013-04-11 10:08:00,78.2,71.5,30.01,SE,132,9.0,13.0,80,0.00,,,0.01,380,Wunderground v.1.15,2013-04-11 14:08:00,
2013-04-11 10:14:00,78.4,71.7,30.01,SE,134,9.0,12.0,80,0.00,,,0.01,413,Wunderground v.1.15,2013-04-11 14:14:00,
2013-04-11 10:20:00,78.7,72.0,30.01,SE,126,9.0,13.0,80,0.00,,,0.01,378,Wunderground v.1.15,2013-04-11 14:20:00,
2013-04-11 10:26:00,79.0,71.6,30.01,East,101,9.0,15.0,78,0.00,,,0.01,378,Wunderground v.1.15,2013-04-11 14:26:00,
2013-04-11 10:32:00,78.7,71.6,30.01,SE,128,11.0,14.0,79,0.00,,,0.01,301,Wunderground v.1.15,2013-04-11 14:32:00,
2013-04-11 10:38:00,78.8,71.7,30.02,SSE,165,10.0,16.0,79,0.00,,,0.01,271,Wunderground v.1.15,2013-04-11 14:38:00,
2013-04-11 10:44:00,78.9,71.8,30.02,SE,136,12.0,14.0,79,0.00,,,0.01,784,Wunderground v.1.15,2013-04-11 14:44:00,
2013-04-11 10:50:00,79.2,72.1,30.02,ESE,121,11.0,11.0,79,0.00,,,0.01,353,Wunderground v.1.15,2013-04-11 14:50:00,
2013-04-11 10:56:00,79.8,71.9,30.02,ESE,107,9.0,11.0,77,0.00,,,0.01,429,Wunderground v.1.15,2013-04-11 14:56:00,
2013-04-11 11:02:00,80.2,72.3,30.02,ESE,118,9.0,18.0,77,0.00,,,0.01,513,Wunderground v.1.15,2013-04-11 15:02:00,
2013-04-11 11:08:00,80.0,72.1,30.02,SE,136,10.0,18.0,77,0.00,,,0.01,397,Wunderground v.1.15,2013-04-11 15:08:00,
2013-04-11 11:14:00,80.1,72.2,30.02,SSE,153,9.0,12.0,77,0.00,,,0.01,475,Wunderground v.1.15,2013-04-11 15:14:00,
2013-04-11 11:20:00,80.0,72.1,30.02,SSE,155,10.0,10.0,77,0.00,,,0.01,610,Wunderground v.1.15,2013-04-11 15:20:00,
2013-04-11 11:26:00,79.8,71.9,30.02,SE,126,9.0,14.0,77,0.00,,,0.01,656,Wunderground v.1.15,2013-04-11 15:26:00,
2013-04-11 11:32:00,79.7,71.8,30.02,SSE,150,9.0,11.0,77,0.00,,,0.01,367,Wunderground v.1.15,2013-04-11 15:32:00,
2013-04-11 11:38:00,79.5,72.0,30.01,South,178,10.0,11.0,78,0.00,,,0.01,415,Wunderground v.1.15,2013-04-11 15:38:00,
2013-04-11 11:44:00,79.4,71.6,30.02,SSE,164,10.0,11.0,77,0.00,,,0.01,285,Wunderground v.1.15,2013-04-11 15:44:00,
2013-04-11 11:50:00,79.5,72.0,30.01,SE,125,10.0,10.0,78,0.00,,,0.01,1042,Wunderground v.1.15,2013-04-11 15:50:00,
2013-04-11 11:56:00,80.3,72.4,30.01,SE,142,9.0,15.0,77,0.00,,,0.01,939,Wunderground v.1.15,2013-04-11 15:56:00,
2013-04-11 12:02:00,80.0,72.1,30.01,ESE,107,10.0,10.0,77,0.00,,,0.01,993,Wunderground v.1.15,2013-04-11 16:02:00,
2013-04-11 12:08:00,80.1,72.6,30.01,SE,142,9.0,13.0,78,0.00,,,0.01,946,Wunderground v.1.15,2013-04-11 16:08:00,
2013-04-11 12:14:00,80.5,72.2,30.01,SE,131,10.0,11.0,76,0.00,,,0.01,939,Wunderground v.1.15,2013-04-11 16:14:00,
2013-04-11 12:20:00,80.7,72.0,30.01,SSE,153,10.0,11.0,75,0.00,,,0.01,348,Wunderground v.1.15,2013-04-11 16:20:00,
2013-04-11 12:26:00,80.3,72.4,30.01,SSE,150,10.0,11.0,77,0.00,,,0.01,1125,Wunderground v.1.15,2013-04-11 16:26:00,
2013-04-11 12:32:00,81.0,72.7,30.00,SSE,155,8.0,9.0,76,0.00,,,0.01,949,Wunderground v.1.15,2013-04-11 16:32:00,
2013-04-11 12:38:00,81.1,72.8,30.00,SE,141,9.0,15.0,76,0.00,,,0.01,183,Wunderground v.1.15,2013-04-11 16:38:00,
2013-04-11 12:44:00,81.0,72.7,30.00,SE,142,10.0,10.0,76,0.00,,,0.01,944,Wunderground v.1.15,2013-04-11 16:44:00,
2013-04-11 12:50:00,81.5,72.8,30.00,ESE,105,9.0,11.0,75,0.00,,,0.01,977,Wunderground v.1.15,2013-04-11 16:50:00,
2013-04-11 12:56:00,81.7,72.6,30.00,SE,126,9.0,13.0,74,0.00,,,0.01,972,Wunderground v.1.15,2013-04-11 16:56:00,
2013-04-11 13:02:00,81.2,72.5,30.00,SE,129,10.0,15.0,75,0.00,,,0.01,861,Wunderground v.1.15,2013-04-11 17:02:00,
2013-04-11 13:08:00,81.1,72.4,30.00,SE,146,10.0,15.0,75,0.00,,,0.01,1013,Wunderground v.1.15,2013-04-11 17:08:00,
2013-04-11 13:14:00,81.1,72.4,30.00,ESE,115,10.0,12.0,75,0.00,,,0.01,976,Wunderground v.1.15,2013-04-11 17:14:00,
2013-04-11 13:20:00,81.1,72.8,30.00,SSE,148,10.0,10.0,76,0.00,,,0.01,680,Wunderground v.1.15,2013-04-11 17:20:00,
2013-04-11 13:28:00,80.7,72.8,29.99,SE,145,10.0,14.0,77,0.00,,,0.01,951,Wunderground v.1.15,2013-04-11 17:28:00,
2013-04-11 13:34:00,81.2,72.9,29.99,SE,132,8.0,11.0,76,0.00,,,0.01,984,Wunderground v.1.15,2013-04-11 17:34:00,
2013-04-11 13:40:00,81.7,73.0,29.99,ESE,114,8.0,8.0,75,0.00,,,0.01,533,Wunderground v.1.15,2013-04-11 17:40:00,
2013-04-11 13:46:00,81.4,73.1,29.98,ESE,113,8.0,9.0,76,0.00,,,0.01,1053,Wunderground v.1.15,2013-04-11 17:46:00,
2013-04-11 13:52:00,81.9,73.2,29.98,SE,125,7.0,10.0,75,0.00,,,0.01,949,Wunderground v.1.15,2013-04-11 17:52:00,
2013-04-11 13:58:00,81.6,72.9,29.98,East,95,7.0,10.0,75,0.00,,,0.01,953,Wunderground v.1.15,2013-04-11 17:58:00,
2013-04-11 14:04:00,81.4,72.7,29.98,SE,141,9.0,14.0,75,0.00,,,0.01,953,Wunderground v.1.15,2013-04-11 18:04:00,
2013-04-11 14:10:00,81.5,72.4,29.97,SE,125,8.0,8.0,74,0.00,,,0.01,448,Wunderground v.1.15,2013-04-11 18:10:00,
2013-04-11 14:16:00,81.9,73.2,29.97,ESE,123,8.0,13.0,75,0.00,,,0.01,1155,Wunderground v.1.15,2013-04-11 18:16:00,
2013-04-11 14:22:00,81.9,72.8,29.97,ESE,107,7.0,8.0,74,0.00,,,0.01,1123,Wunderground v.1.15,2013-04-11 18:22:00,
2013-04-11 14:28:00,81.5,73.2,29.97,East,92,7.0,9.0,76,0.00,,,0.01,1058,Wunderground v.1.15,2013-04-11 18:28:00,
2013-04-11 14:34:00,81.4,72.7,29.97,SE,142,8.0,12.0,75,0.00,,,0.01,566,Wunderground v.1.15,2013-04-11 18:34:00,
2013-04-11 14:40:00,80.9,73.0,29.96,SE,125,9.0,9.0,77,0.00,,,0.01,1028,Wunderground v.1.15,2013-04-11 18:40:00,
2013-04-11 14:46:00,80.8,72.9,29.96,SE,128,9.0,9.0,77,0.00,,,0.01,285,Wunderground v.1.15,2013-04-11 18:46:00,
2013-04-11 14:52:00,80.6,72.7,29.96,SSE,152,9.0,14.0,77,0.00,,,0.01,965,Wunderground v.1.15,2013-04-11 18:52:00,
2013-04-11 14:58:00,80.9,73.0,29.95,SSE,158,10.0,14.0,77,0.00,,,0.01,944,Wunderground v.1.15,2013-04-11 18:58:00,
2013-04-11 15:04:00,81.2,72.9,29.95,SE,132,9.0,10.0,76,0.00,,,0.01,944,Wunderground v.1.15,2013-04-11 19:04:00,
2013-04-11 15:10:00,81.2,72.9,29.95,SE,130,8.0,12.0,76,0.00,,,0.01,287,Wunderground v.1.15,2013-04-11 19:10:00,
2013-04-11 15:16:00,81.1,73.2,29.95,ESE,113,8.0,9.0,77,0.00,,,0.01,232,Wunderground v.1.15,2013-04-11 19:16:00,
2013-04-11 15:22:00,81.1,73.2,29.95,SE,135,6.0,7.0,77,0.00,,,0.01,911,Wunderground v.1.15,2013-04-11 19:22:00,
2013-04-11 15:28:00,81.1,73.2,29.94,East,98,7.0,8.0,77,0.00,,,0.01,990,Wunderground v.1.15,2013-04-11 19:28:00,
2013-04-11 15:34:00,81.0,73.1,29.94,SSE,157,8.0,9.0,77,0.00,,,0.01,928,Wunderground v.1.15,2013-04-11 19:34:00,
2013-04-11 15:40:00,81.1,73.2,29.94,SE,133,8.0,13.0,77,0.00,,,0.01,809,Wunderground v.1.15,2013-04-11 19:40:00,
2013-04-11 15:46:00,81.2,72.9,29.93,SE,142,8.0,8.0,76,0.00,,,0.01,962,Wunderground v.1.15,2013-04-11 19:46:00,
2013-04-11 15:52:00,81.5,73.2,29.93,SE,140,8.0,9.0,76,0.00,,,0.01,912,Wunderground v.1.15,2013-04-11 19:52:00,
2013-04-11 15:58:00,81.1,72.8,29.93,ESE,108,9.0,13.0,76,0.00,,,0.01,761,Wunderground v.1.15,2013-04-11 19:58:00,
2013-04-11 16:04:00,81.1,73.2,29.93,SE,140,9.0,10.0,77,0.00,,,0.01,751,Wunderground v.1.15,2013-04-11 20:04:00,
2013-04-11 16:10:00,81.1,72.8,29.93,SE,142,8.0,8.0,76,0.00,,,0.01,751,Wunderground v.1.15,2013-04-11 20:10:00,
2013-04-11 16:16:00,81.1,72.8,29.93,ESE,117,8.0,12.0,76,0.00,,,0.01,366,Wunderground v.1.15,2013-04-11 20:16:00,
2013-04-11 16:22:00,81.0,73.1,29.93,SE,137,7.0,8.0,77,0.00,,,0.01,304,Wunderground v.1.15,2013-04-11 20:22:00,
2013-04-11 16:28:00,81.2,72.9,29.92,South,171,7.0,9.0,76,0.00,,,0.01,248,Wunderground v.1.15,2013-04-11 20:28:00,
2013-04-11 16:34:00,80.8,72.9,29.92,SE,145,9.0,15.0,77,0.00,,,0.01,304,Wunderground v.1.15,2013-04-11 20:34:00,
2013-04-11 16:40:00,80.6,73.1,29.92,SSE,152,9.0,9.0,78,0.00,,,0.01,257,Wunderground v.1.15,2013-04-11 20:40:00,
2013-04-11 16:46:00,80.6,73.1,29.92,ESE,115,8.0,11.0,78,0.00,,,0.01,172,Wunderground v.1.15,2013-04-11 20:46:00,
2013-04-11 16:52:00,80.6,73.1,29.92,ESE,107,7.0,7.0,78,0.00,,,0.01,253,Wunderground v.1.15,2013-04-11 20:52:00,
2013-04-11 16:58:00,80.3,72.8,29.92,SSE,155,8.0,11.0,78,0.00,,,0.01,680,Wunderground v.1.15,2013-04-11 20:58:00,
2013-04-11 17:04:00,80.7,72.8,29.92,SSE,148,7.0,9.0,77,0.00,,,0.01,216,Wunderground v.1.15,2013-04-11 21:04:00,
2013-04-11 17:10:00,80.9,73.4,29.92,SSE,152,6.0,6.0,78,0.00,,,0.01,441,Wunderground v.1.15,2013-04-11 21:10:00,
2013-04-11 17:16:00,80.8,72.9,29.91,ENE,76,8.0,8.0,77,0.00,,,0.01,554,Wunderground v.1.15,2013-04-11 21:16:00,
2013-04-11 17:22:00,80.4,72.9,29.92,SE,130,7.0,8.0,78,0.00,,,0.01,186,Wunderground v.1.15,2013-04-11 21:22:00,
2013-04-11 17:28:00,80.2,72.7,29.92,SE,140,5.0,10.0,78,0.00,,,0.01,107,Wunderground v.1.15,2013-04-11 21:28:00,
2013-04-11 17:34:00,79.9,72.8,29.92,ESE,111,6.0,9.0,79,0.00,,,0.01,171,Wunderground v.1.15,2013-04-11 21:34:00,
2013-04-11 17:40:00,80.0,73.3,29.92,SE,129,5.0,8.0,80,0.00,,,0.01,383,Wunderground v.1.15,2013-04-11 21:40:00,
2013-04-11 17:48:00,79.9,73.5,29.92,SE,138,6.0,8.0,81,0.00,,,0.01,169,Wunderground v.1.15,2013-04-11 21:48:00,
2013-04-11 17:54:00,79.8,73.4,29.92,SE,126,6.0,11.0,81,0.00,,,0.01,229,Wunderground v.1.15,2013-04-11 21:54:00,
2013-04-11 18:02:00,79.4,73.4,29.92,SE,146,7.0,7.0,82,0.00,,,0.01,102,Wunderground v.1.15,2013-04-11 22:02:00,
2013-04-11 18:08:00,79.2,73.2,29.92,SE,138,6.0,10.0,82,0.00,,,0.01,97,Wunderground v.1.15,2013-04-11 22:08:00,
2013-04-11 18:14:00,79.0,73.0,29.92,SE,134,5.0,5.0,82,0.00,,,0.01,86,Wunderground v.1.15,2013-04-11 22:14:00,
2013-04-11 18:20:00,78.9,72.9,29.92,ESE,114,6.0,9.0,82,0.00,,,0.01,93,Wunderground v.1.15,2013-04-11 22:20:00,
2013-04-11 18:26:00,78.9,72.9,29.92,ESE,123,4.0,5.0,82,0.00,,,0.01,98,Wunderground v.1.15,2013-04-11 22:26:00,
2013-04-11 18:32:00,78.9,72.9,29.92,SSE,153,4.0,7.0,82,0.00,,,0.01,97,Wunderground v.1.15,2013-04-11 22:32:00,
2013-04-11 18:38:00,78.9,72.9,29.91,SE,133,6.0,10.0,82,0.00,,,0.01,77,Wunderground v.1.15,2013-04-11 22:38:00,
2013-04-11 18:44:00,78.8,72.8,29.91,ESE,109,6.0,7.0,82,0.00,,,0.01,69,Wunderground v.1.15,2013-04-11 22:44:00,
2013-04-11 18:50:00,78.8,73.2,29.91,SSE,165,5.0,8.0,83,0.00,,,0.01,70,Wunderground v.1.15,2013-04-11 22:50:00,
2013-04-11 18:56:00,78.8,73.2,29.91,ESE,104,4.0,10.0,83,0.00,,,0.01,62,Wunderground v.1.15,2013-04-11 22:56:00,
2013-04-11 19:02:00,78.7,73.1,29.91,SE,141,4.0,6.0,83,0.00,,,0.01,47,Wunderground v.1.15,2013-04-11 23:02:00,
2013-04-11 19:08:00,78.6,73.0,29.91,SE,137,6.0,10.0,83,0.00,,,0.01,35,Wunderground v.1.15,2013-04-11 23:08:00,
2013-04-11 19:14:00,78.5,72.9,29.91,SE,131,6.0,6.0,83,0.00,,,0.01,25,Wunderground v.1.15,2013-04-11 23:14:00,
2013-04-11 19:20:00,78.5,73.3,29.91,SE,142,5.0,5.0,84,0.00,,,0.01,18,Wunderground v.1.15,2013-04-11 23:20:00,
2013-04-11 19:26:00,78.3,73.1,29.91,ESE,122,5.0,9.0,84,0.00,,,0.01,14,Wunderground v.1.15,2013-04-11 23:26:00,
2013-04-11 19:32:00,78.3,73.4,29.91,SE,139,5.0,6.0,85,0.00,,,0.01,7,Wunderground v.1.15,2013-04-11 23:32:00,
2013-04-11 19:38:00,78.2,73.3,29.91,SE,143,4.0,7.0,85,0.00,,,0.01,5,Wunderground v.1.15,2013-04-11 23:38:00,
2013-04-11 19:44:00,78.1,73.2,29.91,SE,129,5.0,5.0,85,0.00,,,0.01,0,Wunderground v.1.15,2013-04-11 23:44:00,
2013-04-11 19:50:00,78.0,73.1,29.91,SE,126,5.0,5.0,85,0.00,,,0.01,0,Wunderground v.1.15,2013-04-11 23:50:00,
2013-04-11 19:56:00,78.0,73.1,29.91,East,101,5.0,8.0,85,0.00,,,0.01,0,Wunderground v.1.15,2013-04-11 23:56:00,
2013-04-11 20:02:00,78.0,73.1,29.91,East,79,3.0,3.0,85,0.00,,,0.01,0,Wunderground v.1.15,2013-04-12 00:02:00,
2013-04-11 20:08:00,78.0,73.1,29.91,SSE,161,4.0,10.0,85,0.00,,,0.01,0,Wunderground v.1.15,2013-04-12 00:08:00,
2013-04-11 20:14:00,77.9,73.0,29.91,ESE,111,5.0,10.0,85,0.00,,,0.01,0,Wunderground v.1.15,2013-04-12 00:14:00,
2013-04-11 20:20:00,77.9,73.0,29.91,South,175,5.0,10.0,85,0.00,,,0.01,0,Wunderground v.1.15,2013-04-12 00:20:00,
2013-04-11 20:26:00,78.0,73.1,29.91,ESE,122,5.0,9.0,85,0.00,,,0.01,0,Wunderground v.1.15,2013-04-12 00:26:00,
2013-04-11 20:32:00,78.0,73.1,29.91,SE,126,5.0,5.0,85,0.00,,,0.01,0,Wunderground v.1.15,2013-04-12 00:32:00,
2013-04-11 20:38:00,78.0,73.1,29.90,SE,136,6.0,11.0,85,0.00,,,0.01,0,Wunderground v.1.15,2013-04-12 00:38:00,
2013-04-11 20:44:00,77.9,73.0,29.91,SE,129,7.0,11.0,85,0.00,,,0.01,0,Wunderground v.1.15,2013-04-12 00:44:00,
2013-04-11 20:50:00,77.9,73.0,29.90,SE,140,7.0,11.0,85,0.00,,,0.01,0,Wunderground v.1.15,2013-04-12 00:50:00,
2013-04-11 20:56:00,77.9,73.0,29.91,East,101,6.0,8.0,85,0.00,,,0.01,0,Wunderground v.1.15,2013-04-12 00:56:00,
2013-04-11 21:02:00,77.9,73.0,29.91,SE,139,6.0,6.0,85,0.00,,,0.01,0,Wunderground v.1.15,2013-04-12 01:02:00,
2013-04-11 21:08:00,78.0,73.1,29.91,ESE,121,7.0,9.0,85,0.00,,,0.01,0,Wunderground v.1.15,2013-04-12 01:08:00,
2013-04-11 21:14:00,78.0,73.1,29.91,SE,136,6.0,9.0,85,0.00,,,0.01,0,Wunderground v.1.15,2013-04-12 01:14:00,
2013-04-11 21:20:00,78.0,73.1,29.91,SE,136,6.0,9.0,85,0.00,,,0.01,0,Wunderground v.1.15,2013-04-12 01:20:00,
2013-04-11 21:26:00,78.0,73.1,29.91,SE,146,6.0,10.0,85,0.00,,,0.01,0,Wunderground v.1.15,2013-04-12 01:26:00,
2013-04-11 21:32:00,78.0,73.1,29.91,SE,133,7.0,7.0,85,0.00,,,0.01,0,Wunderground v.1.15,2013-04-12 01:32:00,
2013-04-11 21:38:00,78.0,73.1,29.91,SE,124,8.0,9.0,85,0.00,,,0.01,0,Wunderground v.1.15,2013-04-12 01:38:00,
2013-04-11 21:44:00,78.1,73.2,29.91,South,170,7.0,8.0,85,0.00,,,0.01,0,Wunderground v.1.15,2013-04-12 01:44:00,
2013-04-11 21:50:00,78.0,73.5,29.92,South,180,5.0,9.0,86,0.00,,,0.01,0,Wunderground v.1.15,2013-04-12 01:50:00,
2013-04-11 21:56:00,78.0,73.5,29.92,ESE,103,5.0,10.0,86,0.00,,,0.01,0,Wunderground v.1.15,2013-04-12 01:56:00,
2013-04-11 22:02:00,78.0,73.5,29.92,SSE,149,6.0,9.0,86,0.00,,,0.01,0,Wunderground v.1.15,2013-04-12 02:02:00,
2013-04-11 22:08:00,78.0,73.5,29.92,ESE,123,6.0,9.0,86,0.00,,,0.01,0,Wunderground v.1.15,2013-04-12 02:08:00,
2013-04-11 22:14:00,78.0,73.5,29.92,ESE,122,5.0,6.0,86,0.00,,,0.01,0,Wunderground v.1.15,2013-04-12 02:14:00,
2013-04-11 22:20:00,78.0,73.8,29.93,SSE,167,4.0,4.0,87,0.00,,,0.01,0,Wunderground v.1.15,2013-04-12 02:20:00,
2013-04-11 22:26:00,78.1,73.9,29.93,SE,138,5.0,9.0,87,0.00,,,0.01,0,Wunderground v.1.15,2013-04-12 02:26:00,
2013-04-11 22:32:00,78.0,73.8,29.92,South,169,7.0,7.0,87,0.00,,,0.01,0,Wunderground v.1.15,2013-04-12 02:32:00,
2013-04-11 22:38:00,78.0,73.8,29.92,ESE,120,8.0,9.0,87,0.00,,,0.01,0,Wunderground v.1.15,2013-04-12 02:38:00,
2013-04-11 22:44:00,78.0,73.8,29.92,SE,130,8.0,10.0,87,0.00,,,0.01,0,Wunderground v.1.15,2013-04-12 02:44:00,
2013-04-11 22:50:00,77.9,73.7,29.92,ESE,113,7.0,7.0,87,0.00,,,0.01,0,Wunderground v.1.15,2013-04-12 02:50:00,
2013-04-11 22:56:00,77.9,73.7,29.92,SE,133,6.0,11.0,87,0.00,,,0.01,0,Wunderground v.1.15,2013-04-12 02:56:00,
2013-04-11 23:02:00,77.8,73.6,29.92,SE,136,6.0,6.0,87,0.00,,,0.01,0,Wunderground v.1.15,2013-04-12 03:02:00,
2013-04-11 23:08:00,77.8,73.6,29.92,East,95,5.0,8.0,87,0.00,,,0.01,0,Wunderground v.1.15,2013-04-12 03:08:00,
2013-04-11 23:14:00,77.8,73.6,29.91,SSE,160,5.0,5.0,87,0.00,,,0.01,0,Wunderground v.1.15,2013-04-12 03:14:00,
2013-04-11 23:20:00,77.7,73.5,29.91,SSE,153,4.0,5.0,87,0.00,,,0.01,0,Wunderground v.1.15,2013-04-12 03:20:00,
2013-04-11 23:26:00,77.6,73.4,29.91,SE,130,3.0,6.0,87,0.00,,,0.01,0,Wunderground v.1.15,2013-04-12 03:26:00,
2013-04-11 23:32:00,77.6,73.4,29.91,SSE,167,4.0,5.0,87,0.00,,,0.01,0,Wunderground v.1.15,2013-04-12 03:32:00,
2013-04-11 23:38:00,77.6,73.4,29.91,SE,130,5.0,8.0,87,0.00,,,0.01,0,Wunderground v.1.15,2013-04-12 03:38:00,
2013-04-11 23:44:00,77.7,73.5,29.91,SSW,196,4.0,7.0,87,0.00,,,0.01,0,Wunderground v.1.15,2013-04-12 03:44:00,
2013-04-11 23:50:00,77.8,73.6,29.91,SE,145,6.0,7.0,87,0.00,,,0.01,0,Wunderground v.1.15,2013-04-12 03:50:00,
2013-04-11 23:56:00,77.8,73.6,29.91,SE,134,5.0,6.0,87,0.00,,,0.01,0,Wunderground v.1.15,2013-04-12 03:56:00,